owner,sensor,date,latitude,longitude,vertical_datum,wind_speed,wind_to_direction,wind_speed_of_gust,qcFlag 
ADCP,ioos:station:wmo:42887:1,2015-11-01T00:00:00Z,28.1910,-88.4960,48.2,5.7,173.0,99.0,'11111222,11111222,11144222' 
ADCP,ioos:station:wmo:42887:1,2015-11-01T00:20:00Z,28.1910,-88.4960,48.2,6.2,171.0,99.0,'11111222,11111222,11144222' 
ADCP,ioos:station:wmo:42887:1,2015-11-01T00:40:00Z,28.1910,-88.4960,48.2,5.6,172.0,99.0,'11111222,11111222,11144222' 
ADCP,ioos:station:wmo:42887:1,2015-11-01T01:00:00Z,28.1910,-88.4960,48.2,6.5,176.0,99.0,'11111222,11111222,11144222' 
ADCP,ioos:station:wmo:42887:1,2015-11-01T01:20:00Z,28.1910,-88.4960,48.2,5.5,174.0,99.0,'11111222,11111222,11144222' 
ADCP,ioos:station:wmo:42887:1,2015-11-01T01:40:00Z,28.1910,-88.4960,48.2,5.0,167.0,99.0,'11111222,11111222,11144222' 
ADCP,ioos:station:wmo:42887:1,2015-11-01T02:00:00Z,28.1910,-88.4960,48.2,6.0,169.0,99.0,'11111222,11111222,11144222' 
ADCP,ioos:station:wmo:42887:1,2015-11-01T02:20:00Z,28.1910,-88.4960,48.2,6.0,162.0,99.0,'11111222,11111222,11144222' 
ADCP,ioos:station:wmo:42887:1,2015-11-01T02:40:00Z,28.1910,-88.4960,48.2,6.3,169.0,99.0,'11111222,11111222,11144222' 
ADCP,ioos:station:wmo:42887:1,2015-11-01T03:00:00Z,28.1910,-88.4960,48.2,6.0,164.0,99.0,'11111222,11111222,11144222' 
ADCP,ioos:station:wmo:42887:1,2015-11-01T03:20:00Z,28.1910,-88.4960,48.2,5.6,167.0,99.0,'11111222,11111222,11144222' 
ADCP,ioos:station:wmo:42887:1,2015-11-01T03:40:00Z,28.1910,-88.4960,48.2,6.7,165.0,99.0,'11111222,11111222,11144222' 
ADCP,ioos:station:wmo:42887:1,2015-11-01T04:00:00Z,28.1910,-88.4960,48.2,6.0,163.0,99.0,'11111222,11111222,11144222' 
ADCP,ioos:station:wmo:42887:1,2015-11-01T04:20:00Z,28.1910,-88.4960,48.2,5.7,164.0,99.0,'11111222,11111222,11144222' 
ADCP,ioos:station:wmo:42887:1,2015-11-01T04:40:00Z,28.1910,-88.4960,48.2,5.9,171.0,99.0,'11111222,11111222,11144222' 
ADCP,ioos:station:wmo:42887:1,2015-11-01T05:00:00Z,28.1910,-88.4960,48.2,5.1,162.0,99.0,'11111222,11111222,11144222' 
ADCP,ioos:station:wmo:42887:1,2015-11-01T05:20:00Z,28.1910,-88.4960,48.2,6.8,166.0,99.0,'11111222,11111222,11144222' 
ADCP,ioos:station:wmo:42887:1,2015-11-01T05:40:00Z,28.1910,-88.4960,48.2,7.0,167.0,99.0,'11111222,11111222,11144222' 
ADCP,ioos:station:wmo:42887:1,2015-11-01T06:00:00Z,28.1910,-88.4960,48.2,7.7,163.0,99.0,'11111222,11111222,11144222' 
ADCP,ioos:station:wmo:42887:1,2015-11-01T06:20:00Z,28.1910,-88.4960,48.2,6.2,165.0,99.0,'11111222,11111222,11144222' 
ADCP,ioos:station:wmo:42887:1,2015-11-01T06:40:00Z,28.1910,-88.4960,48.2,7.6,173.0,99.0,'11111222,11111222,11144222' 
ADCP,ioos:station:wmo:42887:1,2015-11-01T07:00:00Z,28.1910,-88.4960,48.2,7.2,175.0,99.0,'11111222,11111222,11144222' 
ADCP,ioos:station:wmo:42887:1,2015-11-01T07:20:00Z,28.1910,-88.4960,48.2,7.3,172.0,99.0,'11111222,11111222,11144222' 
ADCP,ioos:station:wmo:42887:1,2015-11-01T07:40:00Z,28.1910,-88.4960,48.2,7.3,169.0,99.0,'11111222,11111222,11144222' 
ADCP,ioos:station:wmo:42887:1,2015-11-01T08:00:00Z,28.1910,-88.4960,48.2,6.7,175.0,99.0,'11111222,11111222,11144222' 
ADCP,ioos:station:wmo:42887:1,2015-11-01T08:20:00Z,28.1910,-88.4960,48.2,5.8,177.0,99.0,'11111222,11111222,11144222' 
ADCP,ioos:station:wmo:42887:1,2015-11-01T08:40:00Z,28.1910,-88.4960,48.2,7.5,176.0,99.0,'11111222,11111222,11144222' 
ADCP,ioos:station:wmo:42887:1,2015-11-01T09:00:00Z,28.1910,-88.4960,48.2,5.1,173.0,99.0,'11111222,11111222,11144222' 
ADCP,ioos:station:wmo:42887:1,2015-11-01T09:20:00Z,28.1910,-88.4960,48.2,6.4,174.0,99.0,'11111222,11111222,11144222' 
ADCP,ioos:station:wmo:42887:1,2015-11-01T09:40:00Z,28.1910,-88.4960,48.2,7.2,170.0,99.0,'11111222,11111222,11144222' 
ADCP,ioos:station:wmo:42887:1,2015-11-01T10:00:00Z,28.1910,-88.4960,48.2,6.9,167.0,99.0,'11111222,11111222,11144222' 
ADCP,ioos:station:wmo:42887:1,2015-11-01T10:20:00Z,28.1910,-88.4960,48.2,6.4,169.0,99.0,'11111222,11111222,11144222' 
ADCP,ioos:station:wmo:42887:1,2015-11-01T10:40:00Z,28.1910,-88.4960,48.2,7.0,167.0,99.0,'11111222,11111222,11144222' 
ADCP,ioos:station:wmo:42887:1,2015-11-01T11:00:00Z,28.1910,-88.4960,48.2,7.9,168.0,99.0,'11111222,11111222,11144222' 
ADCP,ioos:station:wmo:42887:1,2015-11-01T11:20:00Z,28.1910,-88.4960,48.2,7.1,170.0,99.0,'11111222,11111222,11144222' 
ADCP,ioos:station:wmo:42887:1,2015-11-01T11:40:00Z,28.1910,-88.4960,48.2,8.8,167.0,99.0,'11111222,11111222,11144222' 
ADCP,ioos:station:wmo:42887:1,2015-11-01T12:00:00Z,28.1910,-88.4960,48.2,8.3,171.0,99.0,'11111222,11111222,11144222' 
ADCP,ioos:station:wmo:42887:1,2015-11-01T12:20:00Z,28.1910,-88.4960,48.2,8.7,163.0,99.0,'11111222,11111222,11144222' 
ADCP,ioos:station:wmo:42887:1,2015-11-01T12:40:00Z,28.1910,-88.4960,48.2,8.7,165.0,99.0,'11111222,11111222,11144222' 
ADCP,ioos:station:wmo:42887:1,2015-11-01T13:00:00Z,28.1910,-88.4960,48.2,9.7,164.0,99.0,'11111222,11111222,11144222' 
ADCP,ioos:station:wmo:42887:1,2015-11-01T13:20:00Z,28.1910,-88.4960,48.2,10.0,169.0,99.0,'11111222,11111222,11144222' 
ADCP,ioos:station:wmo:42887:1,2015-11-01T13:40:00Z,28.1910,-88.4960,48.2,10.6,167.0,99.0,'11111222,11111222,11144222' 
ADCP,ioos:station:wmo:42887:1,2015-11-01T14:00:00Z,28.1910,-88.4960,48.2,10.2,166.0,99.0,'11111222,11111222,11144222' 
ADCP,ioos:station:wmo:42887:1,2015-11-01T14:20:00Z,28.1910,-88.4960,48.2,11.3,171.0,99.0,'11111222,11111222,11144222' 
ADCP,ioos:station:wmo:42887:1,2015-11-01T14:40:00Z,28.1910,-88.4960,48.2,10.6,171.0,99.0,'11111222,11111222,11144222' 
ADCP,ioos:station:wmo:42887:1,2015-11-01T15:00:00Z,28.1910,-88.4960,48.2,12.2,178.0,99.0,'11111222,11111222,11144222' 
ADCP,ioos:station:wmo:42887:1,2015-11-01T15:20:00Z,28.1910,-88.4960,48.2,10.8,184.0,99.0,'11111222,11111222,11144222' 
ADCP,ioos:station:wmo:42887:1,2015-11-01T15:40:00Z,28.1910,-88.4960,48.2,11.0,176.0,99.0,'11111222,11111222,11144222' 
ADCP,ioos:station:wmo:42887:1,2015-11-01T16:00:00Z,28.1910,-88.4960,48.2,9.8,177.0,99.0,'11111222,11111222,11144222' 
ADCP,ioos:station:wmo:42887:1,2015-11-01T16:20:00Z,28.1910,-88.4960,48.2,9.6,183.0,99.0,'11111222,11111222,11144222' 
ADCP,ioos:station:wmo:42887:1,2015-11-01T16:40:00Z,28.1910,-88.4960,48.2,11.0,191.0,99.0,'11111222,11111222,11144222' 
ADCP,ioos:station:wmo:42887:1,2015-11-01T17:00:00Z,28.1910,-88.4960,48.2,9.3,187.0,99.0,'11111222,11111222,11144222' 
ADCP,ioos:station:wmo:42887:1,2015-11-01T17:20:00Z,28.1910,-88.4960,48.2,12.8,188.0,99.0,'11111222,11111222,11144222' 
ADCP,ioos:station:wmo:42887:1,2015-11-01T17:40:00Z,28.1910,-88.4960,48.2,12.0,184.0,99.0,'11111222,11111222,11144222' 
ADCP,ioos:station:wmo:42887:1,2015-11-01T18:00:00Z,28.1910,-88.4960,48.2,13.7,185.0,99.0,'11111222,11111222,11144222' 
ADCP,ioos:station:wmo:42887:1,2015-11-01T18:20:00Z,28.1910,-88.4960,48.2,11.4,181.0,99.0,'11111222,11111222,11144222' 
ADCP,ioos:station:wmo:42887:1,2015-11-01T18:40:00Z,28.1910,-88.4960,48.2,12.5,183.0,99.0,'11111222,11111222,11144222' 
ADCP,ioos:station:wmo:42887:1,2015-11-01T19:00:00Z,28.1910,-88.4960,48.2,11.4,184.0,99.0,'11111222,11111222,11144222' 
ADCP,ioos:station:wmo:42887:1,2015-11-01T19:20:00Z,28.1910,-88.4960,48.2,11.5,185.0,99.0,'11111222,11111222,11144222' 
ADCP,ioos:station:wmo:42887:1,2015-11-01T19:40:00Z,28.1910,-88.4960,48.2,12.0,187.0,99.0,'11111222,11111222,11144222' 
ADCP,ioos:station:wmo:42887:1,2015-11-01T20:00:00Z,28.1910,-88.4960,48.2,3.3,247.0,99.0,'11111222,11111222,11144222' 
ADCP,ioos:station:wmo:42887:1,2015-11-01T20:20:00Z,28.1910,-88.4960,48.2,10.1,179.0,99.0,'11111222,11111222,11144222' 
ADCP,ioos:station:wmo:42887:1,2015-11-01T20:40:00Z,28.1910,-88.4960,48.2,7.5,174.0,99.0,'11111222,11111222,11144222' 
ADCP,ioos:station:wmo:42887:1,2015-11-01T21:00:00Z,28.1910,-88.4960,48.2,6.3,174.0,99.0,'11111222,11111222,11144222' 
ADCP,ioos:station:wmo:42887:1,2015-11-01T21:20:00Z,28.1910,-88.4960,48.2,8.4,181.0,99.0,'11111222,11111222,11144222' 
ADCP,ioos:station:wmo:42887:1,2015-11-01T21:40:00Z,28.1910,-88.4960,48.2,7.3,171.0,99.0,'11111222,11111222,11144222' 
ADCP,ioos:station:wmo:42887:1,2015-11-01T22:00:00Z,28.1910,-88.4960,48.2,3.1,173.0,99.0,'11111222,11111222,11144222' 
ADCP,ioos:station:wmo:42887:1,2015-11-01T22:20:00Z,28.1910,-88.4960,48.2,5.2,175.0,99.0,'11111222,11111222,11144222' 
ADCP,ioos:station:wmo:42887:1,2015-11-01T22:40:00Z,28.1910,-88.4960,48.2,6.9,185.0,99.0,'11111222,11111222,11144222' 
ADCP,ioos:station:wmo:42887:1,2015-11-01T23:00:00Z,28.1910,-88.4960,48.2,8.3,195.0,99.0,'11111222,11111222,11144222' 
ADCP,ioos:station:wmo:42887:1,2015-11-01T23:20:00Z,28.1910,-88.4960,48.2,4.7,187.0,99.0,'11111222,11111222,11144222' 
ADCP,ioos:station:wmo:42887:1,2015-11-01T23:40:00Z,28.1910,-88.4960,48.2,8.4,195.0,99.0,'11111222,11111222,11144222' 
ADCP,ioos:station:wmo:42887:1,2015-11-02T00:00:00Z,28.1910,-88.4960,48.2,7.2,188.0,99.0,'11111222,11111222,11144222' 
ADCP,ioos:station:wmo:42887:1,2015-11-02T00:20:00Z,28.1910,-88.4960,48.2,5.7,181.0,99.0,'11111222,11111222,11144222' 
ADCP,ioos:station:wmo:42887:1,2015-11-02T00:40:00Z,28.1910,-88.4960,48.2,4.8,185.0,99.0,'11111222,11111222,11144222' 
ADCP,ioos:station:wmo:42887:1,2015-11-02T01:00:00Z,28.1910,-88.4960,48.2,5.8,191.0,99.0,'11111222,11111222,11144222' 
ADCP,ioos:station:wmo:42887:1,2015-11-02T01:20:00Z,28.1910,-88.4960,48.2,6.4,191.0,99.0,'11111222,11111222,11144222' 
ADCP,ioos:station:wmo:42887:1,2015-11-02T01:40:00Z,28.1910,-88.4960,48.2,6.0,186.0,99.0,'11111222,11111222,11144222' 
ADCP,ioos:station:wmo:42887:1,2015-11-02T02:00:00Z,28.1910,-88.4960,48.2,4.8,174.0,99.0,'11111222,11111222,11144222' 
ADCP,ioos:station:wmo:42887:1,2015-11-02T02:20:00Z,28.1910,-88.4960,48.2,5.3,178.0,99.0,'11111222,11111222,11144222' 
ADCP,ioos:station:wmo:42887:1,2015-11-02T02:40:00Z,28.1910,-88.4960,48.2,7.2,181.0,99.0,'11111222,11111222,11144222' 
ADCP,ioos:station:wmo:42887:1,2015-11-02T03:00:00Z,28.1910,-88.4960,48.2,6.1,181.0,99.0,'11111222,11111222,11144222' 
ADCP,ioos:station:wmo:42887:1,2015-11-02T03:20:00Z,28.1910,-88.4960,48.2,6.2,177.0,99.0,'11111222,11111222,11144222' 
ADCP,ioos:station:wmo:42887:1,2015-11-02T03:40:00Z,28.1910,-88.4960,48.2,7.9,173.0,99.0,'11111222,11111222,11144222' 
ADCP,ioos:station:wmo:42887:1,2015-11-02T04:00:00Z,28.1910,-88.4960,48.2,9.9,175.0,99.0,'11111222,11111222,11144222' 
ADCP,ioos:station:wmo:42887:1,2015-11-02T04:20:00Z,28.1910,-88.4960,48.2,10.1,174.0,99.0,'11111222,11111222,11144222' 
ADCP,ioos:station:wmo:42887:1,2015-11-02T04:40:00Z,28.1910,-88.4960,48.2,7.4,178.0,99.0,'11111222,11111222,11144222' 
ADCP,ioos:station:wmo:42887:1,2015-11-02T05:00:00Z,28.1910,-88.4960,48.2,10.3,178.0,99.0,'11111222,11111222,11144222' 
ADCP,ioos:station:wmo:42887:1,2015-11-02T05:20:00Z,28.1910,-88.4960,48.2,12.2,173.0,99.0,'11111222,11111222,11144222' 
ADCP,ioos:station:wmo:42887:1,2015-11-02T05:40:00Z,28.1910,-88.4960,48.2,11.2,175.0,99.0,'11111222,11111222,11144222' 
ADCP,ioos:station:wmo:42887:1,2015-11-02T06:00:00Z,28.1910,-88.4960,48.2,12.1,185.0,99.0,'11111222,11111222,11144222' 
ADCP,ioos:station:wmo:42887:1,2015-11-02T06:20:00Z,28.1910,-88.4960,48.2,9.5,178.0,99.0,'11111222,11111222,11144222' 
ADCP,ioos:station:wmo:42887:1,2015-11-02T06:40:00Z,28.1910,-88.4960,48.2,11.4,196.0,99.0,'11111222,11111222,11144222' 
ADCP,ioos:station:wmo:42887:1,2015-11-02T07:00:00Z,28.1910,-88.4960,48.2,9.8,210.0,99.0,'11111222,11111222,11144222' 
ADCP,ioos:station:wmo:42887:1,2015-11-02T07:20:00Z,28.1910,-88.4960,48.2,8.2,197.0,99.0,'11111222,11111222,11144222' 
ADCP,ioos:station:wmo:42887:1,2015-11-02T07:40:00Z,28.1910,-88.4960,48.2,8.3,198.0,99.0,'11111222,11111222,11144222' 
ADCP,ioos:station:wmo:42887:1,2015-11-02T08:00:00Z,28.1910,-88.4960,48.2,7.5,203.0,99.0,'11111222,11111222,11144222' 
ADCP,ioos:station:wmo:42887:1,2015-11-02T08:20:00Z,28.1910,-88.4960,48.2,8.7,191.0,99.0,'11111222,11111222,11144222' 
ADCP,ioos:station:wmo:42887:1,2015-11-02T08:40:00Z,28.1910,-88.4960,48.2,8.7,191.0,99.0,'11111222,11111222,11144222' 
ADCP,ioos:station:wmo:42887:1,2015-11-02T09:00:00Z,28.1910,-88.4960,48.2,8.8,211.0,99.0,'11111222,11111222,11144222' 
ADCP,ioos:station:wmo:42887:1,2015-11-02T09:20:00Z,28.1910,-88.4960,48.2,9.1,207.0,99.0,'11111222,11111222,11144222' 
ADCP,ioos:station:wmo:42887:1,2015-11-02T09:40:00Z,28.1910,-88.4960,48.2,7.7,210.0,99.0,'11111222,11111222,11144222' 
ADCP,ioos:station:wmo:42887:1,2015-11-02T10:00:00Z,28.1910,-88.4960,48.2,7.5,291.0,99.0,'11111222,11111222,11144222' 
ADCP,ioos:station:wmo:42887:1,2015-11-02T10:20:00Z,28.1910,-88.4960,48.2,7.3,276.0,99.0,'11111222,11111222,11144222' 
ADCP,ioos:station:wmo:42887:1,2015-11-02T10:40:00Z,28.1910,-88.4960,48.2,7.0,273.0,99.0,'11111222,11111222,11144222' 
ADCP,ioos:station:wmo:42887:1,2015-11-02T11:00:00Z,28.1910,-88.4960,48.2,7.1,269.0,99.0,'11111222,11111222,11144222' 
ADCP,ioos:station:wmo:42887:1,2015-11-02T11:20:00Z,28.1910,-88.4960,48.2,7.5,267.0,99.0,'11111222,11111222,11144222' 
ADCP,ioos:station:wmo:42887:1,2015-11-02T11:40:00Z,28.1910,-88.4960,48.2,7.2,272.0,99.0,'11111222,11111222,11144222' 
ADCP,ioos:station:wmo:42887:1,2015-11-02T12:00:00Z,28.1910,-88.4960,48.2,7.6,277.0,99.0,'11111222,11111222,11144222' 
ADCP,ioos:station:wmo:42887:1,2015-11-02T12:20:00Z,28.1910,-88.4960,48.2,7.6,270.0,99.0,'11111222,11111222,11144222' 
ADCP,ioos:station:wmo:42887:1,2015-11-02T12:40:00Z,28.1910,-88.4960,48.2,8.1,275.0,99.0,'11111222,11111222,11144222' 
ADCP,ioos:station:wmo:42887:1,2015-11-02T13:00:00Z,28.1910,-88.4960,48.2,6.8,272.0,99.0,'11111222,11111222,11144222' 
ADCP,ioos:station:wmo:42887:1,2015-11-02T13:20:00Z,28.1910,-88.4960,48.2,6.2,279.0,99.0,'11111222,11111222,11144222' 
ADCP,ioos:station:wmo:42887:1,2015-11-02T13:40:00Z,28.1910,-88.4960,48.2,6.4,276.0,99.0,'11111222,11111222,11144222' 
ADCP,ioos:station:wmo:42887:1,2015-11-02T14:00:00Z,28.1910,-88.4960,48.2,5.3,271.0,99.0,'11111222,11111222,11144222' 
ADCP,ioos:station:wmo:42887:1,2015-11-02T14:20:00Z,28.1910,-88.4960,48.2,5.2,271.0,99.0,'11111222,11111222,11144222' 
ADCP,ioos:station:wmo:42887:1,2015-11-02T14:40:00Z,28.1910,-88.4960,48.2,4.5,271.0,99.0,'11111222,11111222,11144222' 
ADCP,ioos:station:wmo:42887:1,2015-11-02T15:00:00Z,28.1910,-88.4960,48.2,4.5,265.0,99.0,'11111222,11111222,11144222' 
ADCP,ioos:station:wmo:42887:1,2015-11-02T15:20:00Z,28.1910,-88.4960,48.2,4.0,264.0,99.0,'11111222,11111222,11144222' 
ADCP,ioos:station:wmo:42887:1,2015-11-02T15:40:00Z,28.1910,-88.4960,48.2,3.2,264.0,99.0,'11111222,11111222,11144222' 
ADCP,ioos:station:wmo:42887:1,2015-11-02T16:00:00Z,28.1910,-88.4960,48.2,4.4,265.0,99.0,'11111222,11111222,11144222' 
ADCP,ioos:station:wmo:42887:1,2015-11-02T16:20:00Z,28.1910,-88.4960,48.2,1.3,282.0,99.0,'11111222,11111222,11144222' 
ADCP,ioos:station:wmo:42887:1,2015-11-02T16:40:00Z,28.1910,-88.4960,48.2,2.6,229.0,99.0,'11111222,11111222,11144222' 
ADCP,ioos:station:wmo:42887:1,2015-11-02T17:00:00Z,28.1910,-88.4960,48.2,6.0,264.0,99.0,'11111222,11111222,11144222' 
ADCP,ioos:station:wmo:42887:1,2015-11-02T17:20:00Z,28.1910,-88.4960,48.2,5.3,267.0,99.0,'11111222,11111222,11144222' 
ADCP,ioos:station:wmo:42887:1,2015-11-02T17:40:00Z,28.1910,-88.4960,48.2,6.3,265.0,99.0,'11111222,11111222,11144222' 
ADCP,ioos:station:wmo:42887:1,2015-11-02T18:00:00Z,28.1910,-88.4960,48.2,6.7,266.0,99.0,'11111222,11111222,11144222' 
ADCP,ioos:station:wmo:42887:1,2015-11-02T18:20:00Z,28.1910,-88.4960,48.2,6.6,265.0,99.0,'11111222,11111222,11144222' 
ADCP,ioos:station:wmo:42887:1,2015-11-02T18:40:00Z,28.1910,-88.4960,48.2,6.6,293.0,99.0,'11111222,11111222,11144222' 
ADCP,ioos:station:wmo:42887:1,2015-11-02T19:00:00Z,28.1910,-88.4960,48.2,6.0,298.0,99.0,'11111222,11111222,11144222' 
ADCP,ioos:station:wmo:42887:1,2015-11-02T19:20:00Z,28.1910,-88.4960,48.2,6.6,287.0,99.0,'11111222,11111222,11144222' 
ADCP,ioos:station:wmo:42887:1,2015-11-02T19:40:00Z,28.1910,-88.4960,48.2,6.3,309.0,99.0,'11111222,11111222,11144222' 
ADCP,ioos:station:wmo:42887:1,2015-11-02T20:00:00Z,28.1910,-88.4960,48.2,7.2,296.0,99.0,'11111222,11111222,11144222' 
ADCP,ioos:station:wmo:42887:1,2015-11-02T20:20:00Z,28.1910,-88.4960,48.2,6.2,298.0,99.0,'11111222,11111222,11144222' 
ADCP,ioos:station:wmo:42887:1,2015-11-02T20:40:00Z,28.1910,-88.4960,48.2,6.1,294.0,99.0,'11111222,11111222,11144222' 
ADCP,ioos:station:wmo:42887:1,2015-11-02T21:00:00Z,28.1910,-88.4960,48.2,4.8,309.0,99.0,'11111222,11111222,11144222' 
ADCP,ioos:station:wmo:42887:1,2015-11-02T21:20:00Z,28.1910,-88.4960,48.2,5.4,311.0,99.0,'11111222,11111222,11144222' 
ADCP,ioos:station:wmo:42887:1,2015-11-02T21:40:00Z,28.1910,-88.4960,48.2,4.5,294.0,99.0,'11111222,11111222,11144222' 
ADCP,ioos:station:wmo:42887:1,2015-11-02T22:00:00Z,28.1910,-88.4960,48.2,4.7,304.0,99.0,'11111222,11111222,11144222' 
ADCP,ioos:station:wmo:42887:1,2015-11-02T22:20:00Z,28.1910,-88.4960,48.2,4.9,314.0,99.0,'11111222,11111222,11144222' 
ADCP,ioos:station:wmo:42887:1,2015-11-02T22:40:00Z,28.1910,-88.4960,48.2,4.5,309.0,99.0,'11111222,11111222,11144222' 
ADCP,ioos:station:wmo:42887:1,2015-11-02T23:00:00Z,28.1910,-88.4960,48.2,2.5,329.0,99.0,'11111222,11111222,11144222' 
ADCP,ioos:station:wmo:42887:1,2015-11-02T23:20:00Z,28.1910,-88.4960,48.2,4.8,313.0,99.0,'11111222,11111222,11144222' 
ADCP,ioos:station:wmo:42887:1,2015-11-02T23:40:00Z,28.1910,-88.4960,48.2,4.2,324.0,99.0,'11111222,11111222,11144222' 
ADCP,ioos:station:wmo:42887:1,2015-11-03T00:00:00Z,28.1910,-88.4960,48.2,2.7,301.0,99.0,'11111222,11111222,11144222' 
ADCP,ioos:station:wmo:42887:1,2015-11-03T00:20:00Z,28.1910,-88.4960,48.2,3.0,270.0,99.0,'11111222,11111222,11144222' 
ADCP,ioos:station:wmo:42887:1,2015-11-03T00:40:00Z,28.1910,-88.4960,48.2,4.2,283.0,99.0,'11111222,11111222,11144222' 
ADCP,ioos:station:wmo:42887:1,2015-11-03T01:00:00Z,28.1910,-88.4960,48.2,2.2,331.0,99.0,'11111222,11111222,11144222' 
ADCP,ioos:station:wmo:42887:1,2015-11-03T01:20:00Z,28.1910,-88.4960,48.2,3.7,347.0,99.0,'11111222,11111222,11144222' 
ADCP,ioos:station:wmo:42887:1,2015-11-03T01:40:00Z,28.1910,-88.4960,48.2,3.5,319.0,99.0,'11111222,11111222,11144222' 
ADCP,ioos:station:wmo:42887:1,2015-11-03T02:00:00Z,28.1910,-88.4960,48.2,3.0,335.0,99.0,'11111222,11111222,11144222' 
ADCP,ioos:station:wmo:42887:1,2015-11-03T02:20:00Z,28.1910,-88.4960,48.2,1.2,286.0,99.0,'11111222,11111222,11144222' 
ADCP,ioos:station:wmo:42887:1,2015-11-03T02:40:00Z,28.1910,-88.4960,48.2,1.5,336.0,99.0,'11111222,11111222,11144222' 
ADCP,ioos:station:wmo:42887:1,2015-11-03T03:00:00Z,28.1910,-88.4960,48.2,0.6,325.0,99.0,'11111222,11111222,11144222' 
ADCP,ioos:station:wmo:42887:1,2015-11-03T03:20:00Z,28.1910,-88.4960,48.2,2.4,288.0,99.0,'11111222,11111222,11144222' 
ADCP,ioos:station:wmo:42887:1,2015-11-03T03:40:00Z,28.1910,-88.4960,48.2,2.1,271.0,99.0,'11111222,11111222,11144222' 
ADCP,ioos:station:wmo:42887:1,2015-11-03T04:00:00Z,28.1910,-88.4960,48.2,1.0,260.0,99.0,'11111222,11111222,11144222' 
ADCP,ioos:station:wmo:42887:1,2015-11-03T04:20:00Z,28.1910,-88.4960,48.2,0.6,261.0,99.0,'11111222,11111222,11144222' 
ADCP,ioos:station:wmo:42887:1,2015-11-03T04:40:00Z,28.1910,-88.4960,48.2,0.3,310.0,99.0,'11111222,11111222,11144222' 
ADCP,ioos:station:wmo:42887:1,2015-11-03T05:00:00Z,28.1910,-88.4960,48.2,0.0,55.0,99.0,'11111222,11111222,11144222' 
ADCP,ioos:station:wmo:42887:1,2015-11-03T05:20:00Z,28.1910,-88.4960,48.2,0.4,303.0,99.0,'11111222,11111222,11144222' 
ADCP,ioos:station:wmo:42887:1,2015-11-03T05:40:00Z,28.1910,-88.4960,48.2,0.3,215.0,99.0,'11111222,11111222,11144222' 
ADCP,ioos:station:wmo:42887:1,2015-11-03T06:00:00Z,28.1910,-88.4960,48.2,0.0,289.0,99.0,'11111222,11111222,11144222' 
ADCP,ioos:station:wmo:42887:1,2015-11-03T06:20:00Z,28.1910,-88.4960,48.2,0.4,271.0,99.0,'11111222,11111222,11144222' 
ADCP,ioos:station:wmo:42887:1,2015-11-03T06:40:00Z,28.1910,-88.4960,48.2,0.3,358.0,99.0,'11111222,11111222,11144222' 
ADCP,ioos:station:wmo:42887:1,2015-11-03T07:00:00Z,28.1910,-88.4960,48.2,0.2,104.0,99.0,'11111222,11111222,11144222' 
ADCP,ioos:station:wmo:42887:1,2015-11-03T07:20:00Z,28.1910,-88.4960,48.2,0.7,157.0,99.0,'11111222,11111222,11144222' 
ADCP,ioos:station:wmo:42887:1,2015-11-03T07:40:00Z,28.1910,-88.4960,48.2,0.2,213.0,99.0,'11111222,11111222,11144222' 
ADCP,ioos:station:wmo:42887:1,2015-11-03T08:00:00Z,28.1910,-88.4960,48.2,0.2,343.0,99.0,'11111222,11111222,11144222' 
ADCP,ioos:station:wmo:42887:1,2015-11-03T08:20:00Z,28.1910,-88.4960,48.2,0.3,277.0,99.0,'11111222,11111222,11144222' 
ADCP,ioos:station:wmo:42887:1,2015-11-03T08:40:00Z,28.1910,-88.4960,48.2,0.7,358.0,99.0,'11111222,11111222,11144222' 
ADCP,ioos:station:wmo:42887:1,2015-11-03T09:00:00Z,28.1910,-88.4960,48.2,0.1,31.0,99.0,'11111222,11111222,11144222' 
ADCP,ioos:station:wmo:42887:1,2015-11-03T09:20:00Z,28.1910,-88.4960,48.2,0.6,356.0,99.0,'11111222,11111222,11144222' 
ADCP,ioos:station:wmo:42887:1,2015-11-03T09:40:00Z,28.1910,-88.4960,48.2,0.0,315.0,99.0,'11111222,11111222,11144222' 
ADCP,ioos:station:wmo:42887:1,2015-11-03T10:00:00Z,28.1910,-88.4960,48.2,1.3,19.0,99.0,'11111222,11111222,11144222' 
ADCP,ioos:station:wmo:42887:1,2015-11-03T10:20:00Z,28.1910,-88.4960,48.2,0.6,18.0,99.0,'11111222,11111222,11144222' 
ADCP,ioos:station:wmo:42887:1,2015-11-03T10:40:00Z,28.1910,-88.4960,48.2,1.1,29.0,99.0,'11111222,11111222,11144222' 
ADCP,ioos:station:wmo:42887:1,2015-11-03T11:00:00Z,28.1910,-88.4960,48.2,0.3,350.0,99.0,'11111222,11111222,11144222' 
ADCP,ioos:station:wmo:42887:1,2015-11-03T11:20:00Z,28.1910,-88.4960,48.2,0.3,61.0,99.0,'11111222,11111222,11144222' 
ADCP,ioos:station:wmo:42887:1,2015-11-03T11:40:00Z,28.1910,-88.4960,48.2,0.6,25.0,99.0,'11111222,11111222,11144222' 
ADCP,ioos:station:wmo:42887:1,2015-11-03T12:00:00Z,28.1910,-88.4960,48.2,0.3,355.0,99.0,'11111222,11111222,11144222' 
ADCP,ioos:station:wmo:42887:1,2015-11-03T12:20:00Z,28.1910,-88.4960,48.2,0.1,286.0,99.0,'11111222,11111222,11144222' 
ADCP,ioos:station:wmo:42887:1,2015-11-03T12:40:00Z,28.1910,-88.4960,48.2,0.0,277.0,99.0,'11111222,11111222,11144222' 
ADCP,ioos:station:wmo:42887:1,2015-11-03T13:00:00Z,28.1910,-88.4960,48.2,0.2,312.0,99.0,'11111222,11111222,11144222' 
ADCP,ioos:station:wmo:42887:1,2015-11-03T13:20:00Z,28.1910,-88.4960,48.2,1.3,343.0,99.0,'11111222,11111222,11144222' 
ADCP,ioos:station:wmo:42887:1,2015-11-03T13:40:00Z,28.1910,-88.4960,48.2,0.8,358.0,99.0,'11111222,11111222,11144222' 
ADCP,ioos:station:wmo:42887:1,2015-11-03T14:00:00Z,28.1910,-88.4960,48.2,0.2,352.0,99.0,'11111222,11111222,11144222' 
ADCP,ioos:station:wmo:42887:1,2015-11-03T14:20:00Z,28.1910,-88.4960,48.2,0.8,353.0,99.0,'11111222,11111222,11144222' 
ADCP,ioos:station:wmo:42887:1,2015-11-03T14:40:00Z,28.1910,-88.4960,48.2,1.3,11.0,99.0,'11111222,11111222,11144222' 
ADCP,ioos:station:wmo:42887:1,2015-11-03T15:00:00Z,28.1910,-88.4960,48.2,2.9,47.0,99.0,'11111222,11111222,11144222' 
ADCP,ioos:station:wmo:42887:1,2015-11-03T15:20:00Z,28.1910,-88.4960,48.2,4.6,2.0,99.0,'11111222,11111222,11144222' 
ADCP,ioos:station:wmo:42887:1,2015-11-03T15:40:00Z,28.1910,-88.4960,48.2,1.8,5.0,99.0,'11111222,11111222,11144222' 
ADCP,ioos:station:wmo:42887:1,2015-11-03T16:00:00Z,28.1910,-88.4960,48.2,2.1,357.0,99.0,'11111222,11111222,11144222' 
ADCP,ioos:station:wmo:42887:1,2015-11-03T16:20:00Z,28.1910,-88.4960,48.2,0.5,14.0,99.0,'11111222,11111222,11144222' 
ADCP,ioos:station:wmo:42887:1,2015-11-03T16:40:00Z,28.1910,-88.4960,48.2,2.1,358.0,99.0,'11111222,11111222,11144222' 
ADCP,ioos:station:wmo:42887:1,2015-11-03T17:00:00Z,28.1910,-88.4960,48.2,3.8,317.0,99.0,'11111222,11111222,11144222' 
ADCP,ioos:station:wmo:42887:1,2015-11-03T17:20:00Z,28.1910,-88.4960,48.2,3.9,345.0,99.0,'11111222,11111222,11144222' 
ADCP,ioos:station:wmo:42887:1,2015-11-03T17:40:00Z,28.1910,-88.4960,48.2,2.5,4.0,99.0,'11111222,11111222,11144222' 
ADCP,ioos:station:wmo:42887:1,2015-11-03T18:00:00Z,28.1910,-88.4960,48.2,1.5,2.0,99.0,'11111222,11111222,11144222' 
ADCP,ioos:station:wmo:42887:1,2015-11-03T18:20:00Z,28.1910,-88.4960,48.2,1.4,27.0,99.0,'11111222,11111222,11144222' 
ADCP,ioos:station:wmo:42887:1,2015-11-03T18:40:00Z,28.1910,-88.4960,48.2,1.4,18.0,99.0,'11111222,11111222,11144222' 
ADCP,ioos:station:wmo:42887:1,2015-11-03T19:00:00Z,28.1910,-88.4960,48.2,1.3,62.0,99.0,'11111222,11111222,11144222' 